Location: Jastrz?bniki
(50.3667°N, 20.3833°E)
Time: 11:59:01
(UTC+00:00)

Cosmos 1943 Rocket - Pass Details

Date: 05 August 2024
Orbit: 813 x 841 km, 71.0° (Epoch: 07 September)

Event Time Altitude Azimuth Distance (km) Brightness Sun altitude
Rises 02:06:47 0° 331° (NNW) 3,363 5.5 -9.5°
Reaches altitude 10° 02:09:15 10° 335° (NNW) 2,423 4.8 -9.2°
Maximum altitude 02:14:46 65° 57° (ENE) 895 2.7 -8.5°
Drops below altitude 10° 02:20:13 10° 140° (SE) 2,398 4.6 -7.8°
Sets 02:22:39 0° 143° (SE) 3,326 5.3 -7.5°
